Overview Statistics Trail Chart Weather Telemetry Raw packets
 

This is the latest recevied weather packets stored in our database for station/object K4WCH. If no packets are shown the sender has not sent any weather packets the latest 10 day(s).

<< 77 78 79 80 81 82 83 >>
Time Temp. Humidity Pressure Rain* Wind** Luminosity Snow
1788105775 31.67° C 69% 1018.5 hPa 0 mm - 762 W/m² -
1788105471 31.67° C 69% 1018.4 hPa 0 mm - 965 W/m² -
1788105168 31.67° C 69% 1018.5 hPa 0 mm - 965 W/m² -
1788104868 31.67° C 69% 1018.6 hPa 0 mm - 965 W/m² -
1788104563 31.67° C 66% 1018.6 hPa 0 mm - 925 W/m² -
1788104260 31.67° C 67% 1018.6 hPa 0 mm - 873 W/m² -
1788103955 31.67° C 69% 1018.6 hPa 0 mm - 877 W/m² -
1788103653 31.67° C 69% 1018.9 hPa 0 mm - 837 W/m² -
1788103348 31.67° C 69% 1018.9 hPa 0 mm - 837 W/m² -
1788103043 31.67° C 69% 1019.1 hPa 0 mm - 837 W/m² -
1788102742 31.11° C 69% 1019.1 hPa 0 mm - 824 W/m² -
1788102438 31.11° C 71% 1019 hPa 0 mm - 460 W/m² -
1788102137 30.56° C 72% 1018.9 hPa 0 mm - 362 W/m² -
1788101837 30° C 77% 1019.2 hPa 0 mm - 846 W/m² -
1788101533 29.44° C 79% 1018.9 hPa 0 mm - 916 W/m² -
1788101233 29.44° C 80% 1019.1 hPa 0 mm - 327 W/m² -
1788100929 30° C 77% 1019.1 hPa 0 mm - 227 W/m² -
1788100625 30° C 77% 1019.1 hPa 0 mm - 281 W/m² -
1788100322 30° C 78% 1018.9 hPa 0 mm - 387 W/m² -
1788100018 30° C 79% 1019.1 hPa 0 mm - 482 W/m² -
1788099713 30° C 79% 1019.2 hPa 0 mm - 482 W/m² -
1788099408 30.56° C 76% 1019 hPa 0 mm - 272 W/m² -
1788099103 30° C 78% 1018.9 hPa 0 mm - 564 W/m² -
1788098799 30° C 78% 1018.9 hPa 0 mm - 540 W/m² -
1788098499 29.44° C 82% 1019.2 hPa 0 mm - 552 W/m² -

* Rain latest hour (hover to see other rain measurements)
** Current wind speed in m/s (hover to see current wind gust speed)